カタログに戻る

ORBCOMM FM 17

運用中通信LEO
NORAD 25413·PAYLOAD·🇺🇸 United States

打ち上げ Aug 2, 1998 から Cape Canaveral Space Force Station

Loading…

次のパス (今後24時間)

TLE

最新Source: Space-Track

元期: Sep 14, 2026, 01:17 UTC

1 25413U 98046A   26257.05415330  .00000427  00000-0  19402-3 0  9997
2 25413  44.9929 273.8119 0004702 295.7412  64.2949 14.36005931468394

AllMySatでORBCOMM FM 17をリアルタイム追跡

Download on the App Store